SCP
0 0 0 0 0 0 0 0 0 0 0 0 0 0 0 0 0 0 0 0 0 0
0 0 0 0 0 0 0 0 0 0 0 0 0 0 0 0 0 0 0 0 0 0
0 0 0 0 0 0 0 0 0 0 0 0 0 0 0 0 0 0 0 0 0 0
0 0 0 0 0 0 0 0 0 0 0 0 0 0 0 0 0 0 0 0 0 0
0 0 0 0 0 0 0 0 0 0 0 0 0 0 0 0 0 0 0 0 0 0
0 0 0 0 0 0 0 0 0 0 0 0 0 0 0 0 0 0 0 0 0 0
0 0 0 0 0 0 0 0 0 0 0 0 0 0 0 0 0 0 0 0 0 0
0 0 0 0 0 0 0 0 0 0 0 0 0 0 0 0 0 0 0 0 0 0
0 0 0 0 0 0 0 0 0 0 0 0 0 0 0 0 0 0 0 0 0 0
0 0 0 0 0 0 0 0 0 0 0 0 0 0 0 0 0 0 0 0 0 0
0 0 0 0 0 0 0 0 0 0 0 0 0 0 0 0 0 0 0 0 0 0
0 0 0 0 0 0 0 0 0 0 0 0 0 0 0 0 0 0 0 0 0 0
0 0 0 0 0 0 0 0 0 0 0 0 0 0 0 0 0 0 0 0 0 0
0 0 0 0 0 0 0 0 0 0 0 0 0 0 0 0 0 0 0 0 0 0
Wind_Speed_500mb
61 64 63 54 60 63 58 55 54 60 65 64 66 67 60 56 49 43 29 21 19 22
56 53 55 55 64 57 54 56 58 56 64 67 67 67 63 56 50 30 28 23 29 25
49 47 45 50 52 57 58 59 59 53 56 70 69 68 61 46 35 35 34 35 23 27
33 36 38 47 47 54 55 60 50 58 68 70 69 67 53 49 41 30 38 39 27 31
26 31 34 39 43 45 49 50 56 61 64 74 71 64 52 43 42 47 55 28 33 36
34 37 39 40 43 42 39 42 43 53 57 64 59 54 49 49 41 50 38 36 36 40
34 32 34 33 29 30 30 31 36 44 45 44 52 50 35 36 54 55 42 44 45 46
19 17 18 16 16 18 24 29 30 28 31 37 43 38 47 53 58 49 49 40 43 47
3 3 4 7 8 10 13 15 17 24 24 30 38 46 54 52 45 40 37 43 44 46
4 3 4 6 7 11 14 17 14 17 26 34 43 44 39 32 35 37 41 44 44 45
11 9 8 7 7 7 7 10 20 25 33 31 28 23 24 31 42 41 42 44 46 48
18 14 14 9 4 6 12 18 23 14 14 16 20 31 32 40 45 43 49 49 50 52
22 18 14 5 8 16 18 8 9 12 17 26 32 36 38 40 48 53 56 57 55 57
15 7 3 9 9 4 6 13 20 26 29 33 36 39 43 45 50 54 56 58 59 56
Wind_Direction_500mb
240 243 241 241 246 250 252 253 257 254 244 240 240 241 243 245 248 269 255 248 242 259
249 252 244 240 247 254 255 254 256 256 249 247 244 242 240 241 255 250 239 228 246 255
251 255 254 253 257 253 255 259 260 254 255 248 247 239 234 246 237 242 230 254 258 251
255 261 261 262 262 258 259 262 264 253 244 245 246 233 231 237 245 224 269 277 245 256
251 257 260 265 269 267 265 262 256 253 245 243 240 229 231 242 222 250 282 257 254 258
255 261 259 260 263 267 273 274 263 254 246 241 227 226 241 253 261 271 260 251 255 257
259 263 264 270 270 265 256 248 249 248 248 233 224 237 253 266 280 268 265 263 262 261
262 270 273 263 253 251 247 248 250 249 238 227 239 268 273 275 283 277 273 270 268 269
274 259 236 240 242 242 236 240 225 228 231 259 272 273 276 277 273 271 270 271 275 275
132 155 161 179 196 222 222 238 240 263 270 271 276 277 279 273 271 273 273 276 277 277
103 110 138 178 201 196 208 245 274 278 284 283 284 278 271 278 280 278 274 275 278 279
112 115 126 119 143 268 283 294 300 292 283 280 281 284 282 289 287 281 278 279 278 277
118 121 129 163 283 294 303 299 291 293 295 292 293 291 293 294 292 288 286 285 281 277
140 150 246 288 295 313 308 304 305 306 302 300 298 296 292 291 290 292 292 287 284 278
Wind_Speed_850mb
61 64 63 54 60 63 58 55 54 60 65 64 66 67 60 56 49 43 29 21 19 22
56 53 55 55 64 57 54 56 58 56 64 67 67 67 63 56 50 30 28 23 29 25
49 47 45 50 52 57 58 59 59 53 56 70 69 68 61 46 35 35 34 35 23 27
33 36 38 47 47 54 55 60 50 58 68 70 69 67 53 49 41 30 38 39 27 31
26 31 34 39 43 45 49 50 56 61 64 74 71 64 52 43 42 47 55 28 33 36
34 37 39 40 43 42 39 42 43 53 57 64 59 54 49 49 41 50 38 36 36 40
34 32 34 33 29 30 30 31 36 44 45 44 52 50 35 36 54 55 42 44 45 46
19 17 18 16 16 18 24 29 30 28 31 37 43 38 47 53 58 49 49 40 43 47
3 3 4 7 8 10 13 15 17 24 24 30 38 46 54 52 45 40 37 43 44 46
4 3 4 6 7 11 14 17 14 17 26 34 43 44 39 32 35 37 41 44 44 45
11 9 8 7 7 7 7 10 20 25 33 31 28 23 24 31 42 41 42 44 46 48
18 14 14 9 4 6 12 18 23 14 14 16 20 31 32 40 45 43 49 49 50 52
22 18 14 5 8 16 18 8 9 12 17 26 32 36 38 40 48 53 56 57 55 57
15 7 3 9 9 4 6 13 20 26 29 33 36 39 43 45 50 54 56 58 59 56
Wind_Direction_850mb
240 243 241 241 246 250 252 253 257 254 244 240 240 241 243 245 248 269 255 248 242 259
249 252 244 240 247 254 255 254 256 256 249 247 244 242 240 241 255 250 239 228 246 255
251 255 254 253 257 253 255 259 260 254 255 248 247 239 234 246 237 242 230 254 258 251
255 261 261 262 262 258 259 262 264 253 244 245 246 233 231 237 245 224 269 277 245 256
251 257 260 265 269 267 265 262 256 253 245 243 240 229 231 242 222 250 282 257 254 258
255 261 259 260 263 267 273 274 263 254 246 241 227 226 241 253 261 271 260 251 255 257
259 263 264 270 270 265 256 248 249 248 248 233 224 237 253 266 280 268 265 263 262 261
262 270 273 263 253 251 247 248 250 249 238 227 239 268 273 275 283 277 273 270 268 269
274 259 236 240 242 242 236 240 225 228 231 259 272 273 276 277 273 271 270 271 275 275
132 155 161 179 196 222 222 238 240 263 270 271 276 277 279 273 271 273 273 276 277 277
103 110 138 178 201 196 208 245 274 278 284 283 284 278 271 278 280 278 274 275 278 279
112 115 126 119 143 268 283 294 300 292 283 280 281 284 282 289 287 281 278 279 278 277
118 121 129 163 283 294 303 299 291 293 295 292 293 291 293 294 292 288 286 285 281 277
140 150 246 288 295 313 308 304 305 306 302 300 298 296 292 291 290 292 292 287 284 278